Weather History for KHCO - August, 2013

Change the Weather History Date:

Wednesday, August 28, 2013

  Actual Average Record
Temperature  
Mean Temperature 80 °F -  
Max Temperature 93 °F 78 °F 100 °F (1991)
Min Temperature 66 °F 51 °F 32 °F (1934)
Cooling Degree Days 14    
Growing Degree Days 30 (Base 50)    
Moisture  
Dew Point 69 °F    
Average Humidity 76    
Maximum Humidity 100    
Minimum Humidity 46    
Precipitation  
Precipitation 0.00 in - - ()
Sea Level Pressure  
Sea Level Pressure 29.93 in    
Wind  
Wind Speed 5 mph (SE)    
Max Wind Speed 14 mph    
Max Gust Speed 18 mph    
Visibility 9 miles    
Events Thunderstorm    
Averages and records for this station are not official NWS values.
T = Trace of Precipitation, MM = Missing Value Source: NWS Daily Summary

Daily Weather History Graph

Daily Weather History Graph

Search for Another Location

Airport or City:

Trip Planner

Search our weather history database for the weather conditions in past years. The results will help you decide how hot, cold, wet, or windy it might be!

Date:

Astronomy

Aug. 28, 2013 Rise Set
Actual Time 6:39 AM CDT 8:17 PM CDT
Civil Twilight 6:06 AM CDT 8:50 PM CDT
Nautical Twilight 5:25 AM CDT 9:30 PM CDT
Astronomical Twilight 4:41 AM CDT 10:14 PM CDT
Moon No Moon Rise 3:10 PM CDT
Length of Visible Light 14h 44m
Length of Day
13h 37m
Waning Gibbous, 47% of the Moon is Illuminated
Aug 28
Waning Gibbous
Sep 5
New
Sep 12
First Quarter
Sep 19
Full
Sep 26
Last Quarter

Hourly Weather History & Observations

Time (CDT) Temp. Heat Index Dew Point Humidity Pressure Visibility Wind Dir Wind Speed Gust Speed Precip Events Conditions
12:18 AM 73.4 °F - 66.2 °F 78% 29.88 in 10.0 mi SSW 9.2 mph - N/A   Clear
12:33 AM 73.4 °F - 66.2 °F 78% 29.88 in 10.0 mi South 8.1 mph - N/A   Clear
12:53 AM 71.6 °F - 66.2 °F 83% 29.88 in 10.0 mi South 6.9 mph - N/A   Clear
1:13 AM 69.8 °F - 66.2 °F 88% 29.89 in 10.0 mi SE 3.5 mph - N/A   Clear
1:53 AM 69.8 °F - 66.2 °F 88% 29.90 in 10.0 mi East 6.9 mph - N/A   Clear
2:13 AM 69.8 °F - 66.2 °F 88% 29.91 in 10.0 mi East 4.6 mph - N/A   Clear
2:33 AM 69.8 °F - 66.2 °F 88% 29.91 in 10.0 mi East 3.5 mph - N/A   Clear
2:53 AM 69.8 °F - 66.2 °F 88% 29.91 in 10.0 mi East 4.6 mph - N/A   Clear
3:13 AM 69.8 °F - 66.2 °F 88% 29.92 in 10.0 mi Calm Calm - N/A   Clear
3:33 AM 68.0 °F - 66.2 °F 94% 29.92 in 10.0 mi Calm Calm - N/A   Clear
3:52 AM 66.2 °F - 66.2 °F 100% 29.92 in 10.0 mi SSE 5.8 mph - N/A   Clear
4:13 AM 68.0 °F - 66.2 °F 94% 29.92 in 5.0 mi SSE 6.9 mph - N/A   Clear
4:33 AM 66.2 °F - 66.2 °F 100% 29.92 in 5.0 mi SE 5.8 mph - N/A   Clear
4:53 AM 68.0 °F - 66.2 °F 94% 29.92 in 5.0 mi SSE 6.9 mph - N/A   Clear
5:13 AM 66.2 °F - 66.2 °F 100% 29.92 in 3.0 mi SSE 6.9 mph - N/A   Clear
5:33 AM 66.2 °F - 66.2 °F 100% 29.92 in 4.0 mi SSE 5.8 mph - N/A   Clear
5:53 AM 68.0 °F - 66.2 °F 94% 29.92 in 5.0 mi Calm Calm - N/A   Clear
6:13 AM 66.2 °F - 64.4 °F 94% 29.92 in 7.0 mi Calm Calm - N/A   Clear
6:33 AM 66.2 °F - 64.4 °F 94% 29.93 in 7.0 mi Calm Calm - N/A   Clear
6:53 AM 66.2 °F - 64.4 °F 94% 29.93 in 7.0 mi Calm Calm - N/A   Clear
7:13 AM 66.2 °F - 66.2 °F 100% 29.94 in 10.0 mi South 4.6 mph - N/A   Clear
7:33 AM 68.0 °F - 66.2 °F 94% 29.95 in 10.0 mi Calm Calm - N/A   Clear
7:53 AM 69.8 °F - 66.2 °F 88% 29.94 in 10.0 mi Calm Calm - N/A   Clear
8:13 AM 71.6 °F - 68.0 °F 88% 29.94 in 10.0 mi Calm Calm - N/A   Clear
8:33 AM 73.4 °F - 69.8 °F 88% 29.94 in 7.0 mi Calm Calm - N/A   Clear
8:53 AM 73.4 °F - 71.6 °F 94% 29.95 in 10.0 mi Calm Calm - N/A   Clear
9:13 AM 75.2 °F - 71.6 °F 89% 29.95 in 10.0 mi Calm Calm - N/A   Clear
9:33 AM 78.8 °F - 71.6 °F 78% 29.95 in 10.0 mi Calm Calm - N/A   Clear
9:53 AM 78.8 °F - 71.6 °F 78% 29.95 in 10.0 mi SE 3.5 mph - N/A   Clear
10:13 AM 80.6 °F 85.4 °F 73.4 °F 79% 29.96 in 10.0 mi SE 4.6 mph - N/A   Clear
10:33 AM 80.6 °F 85.4 °F 73.4 °F 79% 29.96 in 10.0 mi Calm Calm - N/A   Clear
10:53 AM 82.4 °F 88.2 °F 73.4 °F 74% 29.97 in 10.0 mi Calm Calm - N/A   Clear
11:13 AM 82.4 °F 88.2 °F 73.4 °F 74% 29.96 in 10.0 mi South 3.5 mph - N/A   Clear
11:33 AM 84.2 °F 90.9 °F 73.4 °F 70% 29.96 in 10.0 mi South 3.5 mph - N/A   Clear
11:53 AM 86.0 °F 93.4 °F 73.4 °F 66% 29.96 in 5.0 mi Calm Calm - N/A   Haze
12:13 PM 87.8 °F 95.6 °F 73.4 °F 62% 29.96 in 1.2 mi Calm Calm - N/A   Haze
12:33 PM 87.8 °F 95.6 °F 73.4 °F 62% 29.96 in 1.8 mi ENE 3.5 mph - N/A   Haze
12:53 PM 89.6 °F 98.2 °F 73.4 °F 59% 29.96 in 3.0 mi South 3.5 mph - N/A   Haze
1:13 PM 89.6 °F 98.2 °F 73.4 °F 59% 29.95 in 5.0 mi SE 4.6 mph - N/A   Haze
1:33 PM 89.6 °F 98.2 °F 73.4 °F 59% 29.95 in 7.0 mi East 3.5 mph - N/A   Clear
1:53 PM 91.4 °F 100.1 °F 73.4 °F 55% 29.94 in 10.0 mi ESE 4.6 mph - N/A   Clear
2:13 PM 91.4 °F 100.1 °F 73.4 °F 55% 29.94 in 10.0 mi SE 3.5 mph - N/A   Clear
2:33 PM 91.4 °F 98.4 °F 71.6 °F 52% 29.94 in 10.0 mi East 4.6 mph - N/A   Clear
2:52 PM 91.4 °F 96.8 °F 69.8 °F 49% 29.94 in 10.0 mi East 4.6 mph - N/A   Clear
3:13 PM 91.4 °F 96.8 °F 69.8 °F 49% 29.94 in 10.0 mi ESE 4.6 mph - N/A   Clear
3:33 PM 93.2 °F 98.8 °F 69.8 °F 46% 29.93 in 10.0 mi East 6.9 mph - N/A   Clear
3:52 PM 93.2 °F 98.8 °F 69.8 °F 46% 29.93 in 10.0 mi ESE 4.6 mph - N/A   Clear
4:13 PM 93.2 °F 100.5 °F 71.6 °F 49% 29.93 in 10.0 mi ESE 3.5 mph - N/A   Clear
4:33 PM 93.2 °F 100.5 °F 71.6 °F 49% 29.92 in 10.0 mi Calm Calm - N/A   Clear
4:52 PM 91.4 °F 98.4 °F 71.6 °F 52% 29.92 in 10.0 mi ESE 6.9 mph - N/A   Clear
5:13 PM 91.4 °F 98.4 °F 71.6 °F 52% 29.91 in 10.0 mi East 4.6 mph - N/A   Clear
5:33 PM 89.6 °F 96.2 °F 71.6 °F 55% 29.92 in 10.0 mi SE 4.6 mph - N/A   Clear
5:52 PM 87.8 °F 92.6 °F 69.8 °F 55% 29.93 in 10.0 mi South 10.4 mph 17.3 mph N/A   Clear
6:13 PM 84.2 °F 86.6 °F 66.2 °F 55% 29.93 in 10.0 mi SSE 11.5 mph - N/A   Clear
6:33 PM 84.2 °F 86.6 °F 66.2 °F 55% 29.93 in 10.0 mi SSE 11.5 mph 18.4 mph N/A   Clear
6:52 PM 84.2 °F 85.0 °F 62.6 °F 48% 29.93 in 10.0 mi SE 13.8 mph 18.4 mph N/A   Clear
7:13 PM 82.4 °F 86.3 °F 69.8 °F 66% 29.94 in 10.0 mi SE 9.2 mph 17.3 mph N/A Thunderstorm Thunderstorm
7:33 PM 82.4 °F 86.3 °F 69.8 °F 66% 29.94 in 10.0 mi SE 5.8 mph - N/A   Mostly Cloudy
7:53 PM 80.6 °F 83.9 °F 69.8 °F 70% 29.95 in 10.0 mi SE 4.6 mph - N/A   Mostly Cloudy
8:13 PM 80.6 °F 83.9 °F 69.8 °F 70% 29.95 in 10.0 mi Calm Calm - N/A   Scattered Clouds
8:33 PM 80.6 °F 83.9 °F 69.8 °F 70% 29.95 in 10.0 mi Calm Calm - N/A   Clear
8:53 PM 78.8 °F - 69.8 °F 74% 29.95 in 10.0 mi Calm Calm - N/A   Clear
9:13 PM 77.0 °F - 69.8 °F 78% 29.94 in 10.0 mi Calm Calm - N/A   Clear
9:33 PM 75.2 °F - 69.8 °F 83% 29.94 in 10.0 mi Calm Calm - N/A   Clear
9:53 PM 73.4 °F - 69.8 °F 88% 29.94 in 10.0 mi Calm Calm - N/A   Clear
10:13 PM 73.4 °F - 69.8 °F 88% 29.94 in 10.0 mi East 3.5 mph - N/A   Clear
10:33 PM 71.6 °F - 69.8 °F 94% 29.94 in 10.0 mi East 5.8 mph - N/A   Clear
10:53 PM 73.4 °F - 69.8 °F 88% 29.95 in 10.0 mi East 5.8 mph - N/A   Clear
11:13 PM 71.6 °F - 69.8 °F 94% 29.94 in 10.0 mi ESE 5.8 mph - N/A   Clear
11:33 PM 75.2 °F - 68.0 °F 78% 29.94 in 10.0 mi SE 6.9 mph - N/A   Clear
11:53 PM 75.2 °F - 68.0 °F 78% 29.94 in 10.0 mi SE 8.1 mph - N/A   Clear